contact:dominique.lefevre@mio.osupytheas.fr, maurice.libes@osupytheas.fr, didier.mallarino@osupytheas.fr
Project:EMSO http://www.emso-fr.org/EMSO-France
Depth: 2436.0 m
Title:EMSO Ligure Ouest : Data MII capteur MICROCAT
DateTime_Computer,Latitude,Longitude,Temperature,Conductivity,Pressure,DateTime_Instrument
DateTime_Computer,Latitude,Longitude,degC,S m-1,dbar,DateTime_Instrument
2022-04-12T00:02:24Z,42.805,6.029,13.2998,4.60034,2470.497,2022-4-12T02:04:03Z
2022-04-12T00:05:28Z,42.805,6.029,13.2998,4.60033,2470.483,2022-4-12T02:07:06Z
2022-04-12T00:08:31Z,42.805,6.029,13.2996,4.60032,2470.483,2022-4-12T02:10:09Z
2022-04-12T00:11:34Z,42.805,6.029,13.2999,4.60033,2470.52,2022-4-12T02:13:12Z
2022-04-12T00:14:37Z,42.805,6.029,13.2998,4.60033,2470.497,2022-4-12T02:16:15Z
2022-04-12T00:17:40Z,42.805,6.029,13.2999,4.60033,2470.52,2022-4-12T02:19:18Z
2022-04-12T00:20:43Z,42.805,6.029,13.2995,4.60033,2470.483,2022-4-12T02:22:21Z
2022-04-12T00:23:46Z,42.805,6.029,13.2999,4.60033,2470.507,2022-4-12T02:25:24Z
2022-04-12T00:26:49Z,42.805,6.029,13.2999,4.60033,2470.507,2022-4-12T02:28:28Z
2022-04-12T00:29:53Z,42.805,6.029,13.2996,4.60033,2470.53,2022-4-12T02:31:31Z
2022-04-12T00:32:56Z,42.805,6.029,13.2998,4.60035,2470.483,2022-4-12T02:34:34Z
2022-04-12T00:35:59Z,42.805,6.029,13.2998,4.60032,2470.52,2022-4-12T02:37:37Z
2022-04-12T00:39:02Z,42.805,6.029,13.2996,4.60033,2470.507,2022-4-12T02:40:40Z
2022-04-12T00:42:05Z,42.805,6.029,13.2992,4.60032,2470.507,2022-4-12T02:43:43Z
2022-04-12T00:45:08Z,42.805,6.029,13.2998,4.60033,2470.507,2022-4-12T02:46:46Z
2022-04-12T00:48:11Z,42.805,6.029,13.2994,4.60034,2470.507,2022-4-12T02:49:49Z
2022-04-12T00:51:14Z,42.805,6.029,13.3000,4.60033,2470.507,2022-4-12T02:52:53Z
2022-04-12T00:54:17Z,42.805,6.029,13.2998,4.60034,2470.507,2022-4-12T02:55:56Z
2022-04-12T00:57:21Z,42.805,6.029,13.2994,4.60033,2470.52,2022-4-12T02:58:59Z
2022-04-12T01:00:24Z,42.805,6.029,13.3000,4.60035,2470.483,2022-4-12T03:02:02Z
2022-04-12T01:03:27Z,42.805,6.029,13.2999,4.60033,2470.507,2022-4-12T03:05:05Z
2022-04-12T01:06:30Z,42.805,6.029,13.2997,4.60033,2470.507,2022-4-12T03:08:08Z
2022-04-12T01:09:33Z,42.805,6.029,13.2999,4.60034,2470.53,2022-4-12T03:11:11Z
2022-04-12T01:12:36Z,42.805,6.029,13.2998,4.60036,2470.53,2022-4-12T03:14:14Z
2022-04-12T01:15:39Z,42.805,6.029,13.3002,4.60033,2470.544,2022-4-12T03:17:17Z
2022-04-12T01:18:42Z,42.805,6.029,13.3000,4.60033,2470.553,2022-4-12T03:20:21Z
2022-04-12T01:21:46Z,42.805,6.029,13.2997,4.60034,2470.507,2022-4-12T03:23:24Z
2022-04-12T01:24:49Z,42.805,6.029,13.2998,4.60033,2470.53,2022-4-12T03:26:27Z
2022-04-12T01:27:52Z,42.805,6.029,13.2996,4.60033,2470.53,2022-4-12T03:29:30Z
2022-04-12T01:30:55Z,42.805,6.029,13.2998,4.60034,2470.544,2022-4-12T03:32:33Z
2022-04-12T01:33:58Z,42.805,6.029,13.2997,4.60034,2470.553,2022-4-12T03:35:36Z
2022-04-12T01:37:01Z,42.805,6.029,13.3001,4.60033,2470.577,2022-4-12T03:38:39Z
2022-04-12T01:40:04Z,42.805,6.029,13.2998,4.60033,2470.553,2022-4-12T03:41:42Z
2022-04-12T01:43:07Z,42.805,6.029,13.2998,4.60034,2470.553,2022-4-12T03:44:46Z
2022-04-12T01:46:11Z,42.805,6.029,13.2996,4.60033,2470.53,2022-4-12T03:47:49Z
2022-04-12T01:49:14Z,42.805,6.029,13.2995,4.60033,2470.567,2022-4-12T03:50:52Z
2022-04-12T01:52:17Z,42.805,6.029,13.2998,4.60033,2470.53,2022-4-12T03:53:55Z
2022-04-12T01:55:20Z,42.805,6.029,13.3000,4.60033,2470.553,2022-4-12T03:56:58Z
2022-04-12T01:58:23Z,42.805,6.029,13.2995,4.60032,2470.53,2022-4-12T04:00:01Z
2022-04-12T02:01:26Z,42.805,6.029,13.2997,4.60035,2470.591,2022-4-12T04:03:04Z
2022-04-12T02:04:29Z,42.805,6.029,13.2999,4.60033,2470.563,2022-4-12T04:06:07Z
2022-04-12T02:07:32Z,42.805,6.029,13.3000,4.60034,2470.577,2022-4-12T04:09:11Z
2022-04-12T02:10:36Z,42.805,6.029,13.2999,4.60034,2470.614,2022-4-12T04:12:14Z
2022-04-12T02:13:39Z,42.805,6.029,13.2999,4.60034,2470.591,2022-4-12T04:15:17Z
2022-04-12T02:16:42Z,42.805,6.029,13.2996,4.60034,2470.577,2022-4-12T04:18:20Z
2022-04-12T02:19:45Z,42.805,6.029,13.2997,4.60033,2470.577,2022-4-12T04:21:23Z
2022-04-12T02:22:48Z,42.805,6.029,13.2996,4.60033,2470.6,2022-4-12T04:24:26Z
2022-04-12T02:25:51Z,42.805,6.029,13.3000,4.60033,2470.6,2022-4-12T04:27:29Z
2022-04-12T02:28:54Z,42.805,6.029,13.3000,4.60033,2470.624,2022-4-12T04:30:32Z
2022-04-12T02:31:57Z,42.805,6.029,13.2996,4.60033,2470.614,2022-4-12T04:33:36Z
2022-04-12T02:35:00Z,42.805,6.029,13.3003,4.60034,2470.6,2022-4-12T04:36:39Z
2022-04-12T02:38:04Z,42.805,6.029,13.2998,4.60033,2470.6,2022-4-12T04:39:42Z
2022-04-12T02:41:07Z,42.805,6.029,13.3000,4.60036,2470.577,2022-4-12T04:42:45Z
2022-04-12T02:44:10Z,42.805,6.029,13.2998,4.60036,2470.6,2022-4-12T04:45:48Z
2022-04-12T02:47:13Z,42.805,6.029,13.2998,4.60034,2470.6,2022-4-12T04:48:51Z
2022-04-12T02:50:16Z,42.805,6.029,13.2996,4.60033,2470.624,2022-4-12T04:51:54Z
2022-04-12T02:53:19Z,42.805,6.029,13.2996,4.60034,2470.614,2022-4-12T04:54:57Z
2022-04-12T02:56:22Z,42.805,6.029,13.2997,4.60035,2470.624,2022-4-12T04:58:00Z
2022-04-12T02:59:25Z,42.805,6.029,13.2996,4.60034,2470.637,2022-4-12T05:01:04Z
2022-04-12T03:02:29Z,42.805,6.029,13.2999,4.60033,2470.614,2022-4-12T05:04:07Z
2022-04-12T03:05:32Z,42.805,6.029,13.3001,4.60035,2470.614,2022-4-12T05:07:10Z
2022-04-12T03:08:35Z,42.805,6.029,13.3000,4.60035,2470.624,2022-4-12T05:10:13Z
2022-04-12T03:11:38Z,42.805,6.029,13.2995,4.60033,2470.6,2022-4-12T05:13:16Z
2022-04-12T03:14:41Z,42.805,6.029,13.2999,4.60033,2470.6,2022-4-12T05:16:19Z
2022-04-12T03:17:44Z,42.805,6.029,13.2997,4.60032,2470.614,2022-4-12T05:19:22Z
2022-04-12T03:20:47Z,42.805,6.029,13.2998,4.60033,2470.614,2022-4-12T05:22:25Z
2022-04-12T03:23:50Z,42.805,6.029,13.3000,4.60033,2470.614,2022-4-12T05:25:29Z
2022-04-12T03:26:54Z,42.805,6.029,13.3001,4.60035,2470.586,2022-4-12T05:28:32Z
2022-04-12T03:29:57Z,42.805,6.029,13.2997,4.60034,2470.637,2022-4-12T05:31:35Z
2022-04-12T03:33:00Z,42.805,6.029,13.2998,4.60033,2470.646,2022-4-12T05:34:38Z
2022-04-12T03:36:03Z,42.805,6.029,13.2998,4.60034,2470.577,2022-4-12T05:37:41Z
2022-04-12T03:39:06Z,42.805,6.029,13.2996,4.60033,2470.6,2022-4-12T05:40:44Z
2022-04-12T03:42:09Z,42.805,6.029,13.3000,4.60034,2470.624,2022-4-12T05:43:47Z
2022-04-12T03:45:12Z,42.805,6.029,13.2998,4.60033,2470.61,2022-4-12T05:46:50Z
2022-04-12T03:48:15Z,42.805,6.029,13.2999,4.60033,2470.6,2022-4-12T05:49:54Z
2022-04-12T03:51:19Z,42.805,6.029,13.2998,4.60033,2470.624,2022-4-12T05:52:57Z
2022-04-12T03:54:22Z,42.805,6.029,13.2999,4.60033,2470.6,2022-4-12T05:56:00Z
2022-04-12T03:57:25Z,42.805,6.029,13.2998,4.60033,2470.624,2022-4-12T05:59:03Z
2022-04-12T04:00:28Z,42.805,6.029,13.2999,4.60033,2470.6,2022-4-12T06:02:06Z
2022-04-12T04:03:31Z,42.805,6.029,13.2998,4.60035,2470.624,2022-4-12T06:05:09Z
2022-04-12T04:06:34Z,42.805,6.029,13.3000,4.60033,2470.614,2022-4-12T06:08:12Z
2022-04-12T04:09:37Z,42.805,6.029,13.2998,4.60034,2470.6,2022-4-12T06:11:15Z
2022-04-12T04:12:40Z,42.805,6.029,13.2996,4.60034,2470.6,2022-4-12T06:14:18Z
2022-04-12T04:15:43Z,42.805,6.029,13.2998,4.60033,2470.624,2022-4-12T06:17:22Z
2022-04-12T04:18:47Z,42.805,6.029,13.2998,4.60035,2470.624,2022-4-12T06:20:25Z
2022-04-12T04:21:50Z,42.805,6.029,13.3000,4.60033,2470.624,2022-4-12T06:23:28Z
2022-04-12T04:24:53Z,42.805,6.029,13.3000,4.60033,2470.661,2022-4-12T06:26:31Z
2022-04-12T04:27:56Z,42.805,6.029,13.2996,4.60033,2470.6,2022-4-12T06:29:34Z
2022-04-12T04:30:59Z,42.805,6.029,13.3000,4.60034,2470.614,2022-4-12T06:32:37Z
2022-04-12T04:34:02Z,42.805,6.029,13.3000,4.60033,2470.646,2022-4-12T06:35:40Z
2022-04-12T04:37:05Z,42.805,6.029,13.2996,4.60033,2470.624,2022-4-12T06:38:43Z
2022-04-12T04:40:08Z,42.805,6.029,13.3001,4.60033,2470.614,2022-4-12T06:41:47Z
2022-04-12T04:43:12Z,42.805,6.029,13.2998,4.60034,2470.646,2022-4-12T06:44:50Z
2022-04-12T04:46:15Z,42.805,6.029,13.2996,4.60033,2470.637,2022-4-12T06:47:53Z
2022-04-12T04:49:18Z,42.805,6.029,13.2997,4.60034,2470.637,2022-4-12T06:50:56Z
2022-04-12T04:52:21Z,42.805,6.029,13.3000,4.60034,2470.637,2022-4-12T06:53:59Z
2022-04-12T04:55:24Z,42.805,6.029,13.2999,4.60034,2470.637,2022-4-12T06:57:02Z
2022-04-12T04:58:27Z,42.805,6.029,13.3000,4.60036,2470.637,2022-4-12T07:00:05Z
2022-04-12T05:01:30Z,42.805,6.029,13.2998,4.60034,2470.6,2022-4-12T07:03:08Z
2022-04-12T05:04:33Z,42.805,6.029,13.2994,4.60034,2470.637,2022-4-12T07:06:12Z
2022-04-12T05:07:37Z,42.805,6.029,13.2997,4.60033,2470.624,2022-4-12T07:09:15Z
2022-04-12T05:10:40Z,42.805,6.029,13.2996,4.60033,2470.637,2022-4-12T07:12:18Z
2022-04-12T05:13:43Z,42.805,6.029,13.3000,4.60033,2470.624,2022-4-12T07:15:21Z
2022-04-12T05:16:46Z,42.805,6.029,13.2996,4.60032,2470.624,2022-4-12T07:18:24Z
2022-04-12T05:19:49Z,42.805,6.029,13.2996,4.60035,2470.646,2022-4-12T07:21:27Z
2022-04-12T05:22:52Z,42.805,6.029,13.2994,4.60033,2470.624,2022-4-12T07:24:30Z
2022-04-12T05:25:55Z,42.805,6.029,13.2998,4.60035,2470.661,2022-4-12T07:27:33Z
2022-04-12T05:28:58Z,42.805,6.029,13.2994,4.60033,2470.6,2022-4-12T07:30:37Z
2022-04-12T05:32:01Z,42.805,6.029,13.3000,4.60033,2470.637,2022-4-12T07:33:40Z
2022-04-12T05:35:05Z,42.805,6.029,13.2994,4.60033,2470.577,2022-4-12T07:36:43Z
2022-04-12T05:38:08Z,42.805,6.029,13.3001,4.60033,2470.624,2022-4-12T07:39:46Z
2022-04-12T05:41:11Z,42.805,6.029,13.2998,4.60033,2470.637,2022-4-12T07:42:49Z
2022-04-12T05:44:14Z,42.805,6.029,13.2994,4.60033,2470.614,2022-4-12T07:45:52Z
2022-04-12T05:47:17Z,42.805,6.029,13.2997,4.60033,2470.614,2022-4-12T07:48:55Z
2022-04-12T05:50:20Z,42.805,6.029,13.2999,4.60034,2470.624,2022-4-12T07:51:58Z
2022-04-12T05:53:23Z,42.805,6.029,13.2997,4.60033,2470.637,2022-4-12T07:55:02Z
2022-04-12T05:56:26Z,42.805,6.029,13.2998,4.60033,2470.6,2022-4-12T07:58:05Z
2022-04-12T05:59:30Z,42.805,6.029,13.2997,4.60033,2470.586,2022-4-12T08:01:08Z
2022-04-12T06:02:33Z,42.805,6.029,13.2998,4.60033,2470.637,2022-4-12T08:04:11Z
2022-04-12T06:05:36Z,42.805,6.029,13.2993,4.60033,2470.646,2022-4-12T08:07:14Z
2022-04-12T06:08:39Z,42.805,6.029,13.2998,4.60033,2470.637,2022-4-12T08:10:17Z
2022-04-12T06:11:42Z,42.805,6.029,13.2998,4.60033,2470.624,2022-4-12T08:13:20Z
2022-04-12T06:14:45Z,42.805,6.029,13.2996,4.60033,2470.637,2022-4-12T08:16:23Z
2022-04-12T06:17:48Z,42.805,6.029,13.2997,4.60034,2470.637,2022-4-12T08:19:26Z
2022-04-12T06:20:51Z,42.805,6.029,13.2998,4.60033,2470.577,2022-4-12T08:22:30Z
2022-04-12T06:23:55Z,42.805,6.029,13.3000,4.60033,2470.6,2022-4-12T08:25:33Z
2022-04-12T06:26:58Z,42.805,6.029,13.2996,4.60033,2470.6,2022-4-12T08:28:36Z
2022-04-12T06:30:01Z,42.805,6.029,13.2999,4.60034,2470.637,2022-4-12T08:31:39Z
2022-04-12T06:33:04Z,42.805,6.029,13.2998,4.60033,2470.624,2022-4-12T08:34:42Z
2022-04-12T06:36:07Z,42.805,6.029,13.2998,4.60033,2470.614,2022-4-12T08:37:45Z
2022-04-12T06:39:10Z,42.805,6.029,13.2998,4.60033,2470.6,2022-4-12T08:40:48Z
2022-04-12T06:42:13Z,42.805,6.029,13.2998,4.60033,2470.624,2022-4-12T08:43:51Z
2022-04-12T06:45:16Z,42.805,6.029,13.2998,4.60035,2470.614,2022-4-12T08:46:55Z
2022-04-12T06:48:20Z,42.805,6.029,13.3000,4.60034,2470.614,2022-4-12T08:49:58Z
2022-04-12T06:51:23Z,42.805,6.029,13.2996,4.60033,2470.6,2022-4-12T08:53:01Z
2022-04-12T06:54:26Z,42.805,6.029,13.2997,4.60033,2470.577,2022-4-12T08:56:04Z
2022-04-12T06:57:29Z,42.805,6.029,13.2996,4.60033,2470.6,2022-4-12T08:59:07Z
2022-04-12T07:00:32Z,42.805,6.029,13.2996,4.60033,2470.591,2022-4-12T09:02:10Z
2022-04-12T07:03:35Z,42.805,6.029,13.2998,4.60034,2470.6,2022-4-12T09:05:13Z
2022-04-12T07:06:38Z,42.805,6.029,13.2999,4.60033,2470.577,2022-4-12T09:08:16Z
2022-04-12T07:09:41Z,42.805,6.029,13.2999,4.60033,2470.591,2022-4-12T09:11:20Z
2022-04-12T07:12:44Z,42.805,6.029,13.3001,4.60033,2470.624,2022-4-12T09:14:23Z
2022-04-12T07:15:48Z,42.805,6.029,13.3001,4.60033,2470.614,2022-4-12T09:17:26Z
2022-04-12T07:18:51Z,42.805,6.029,13.2999,4.60033,2470.61,2022-4-12T09:20:29Z
2022-04-12T07:21:54Z,42.805,6.029,13.2999,4.60033,2470.577,2022-4-12T09:23:32Z
2022-04-12T07:24:57Z,42.805,6.029,13.2998,4.60033,2470.577,2022-4-12T09:26:35Z
2022-04-12T07:28:00Z,42.805,6.029,13.2998,4.60033,2470.6,2022-4-12T09:29:38Z
2022-04-12T07:31:03Z,42.805,6.029,13.2997,4.60033,2470.624,2022-4-12T09:32:41Z
2022-04-12T07:34:06Z,42.805,6.029,13.2999,4.60033,2470.637,2022-4-12T09:35:45Z
2022-04-12T07:37:09Z,42.805,6.029,13.2996,4.60033,2470.577,2022-4-12T09:38:48Z
2022-04-12T07:40:13Z,42.805,6.029,13.2998,4.60033,2470.577,2022-4-12T09:41:51Z
2022-04-12T07:43:16Z,42.805,6.029,13.2998,4.60033,2470.6,2022-4-12T09:44:54Z
2022-04-12T07:46:19Z,42.805,6.029,13.2998,4.60033,2470.577,2022-4-12T09:47:57Z
2022-04-12T07:49:22Z,42.805,6.029,13.2999,4.60033,2470.614,2022-4-12T09:51:00Z
2022-04-12T07:52:25Z,42.805,6.029,13.2996,4.60034,2470.6,2022-4-12T09:54:03Z
2022-04-12T07:55:28Z,42.805,6.029,13.2996,4.60033,2470.567,2022-4-12T09:57:06Z
2022-04-12T07:58:31Z,42.805,6.029,13.2997,4.60035,2470.591,2022-4-12T10:00:09Z
2022-04-12T08:01:34Z,42.805,6.029,13.2998,4.60033,2470.577,2022-4-12T10:03:13Z
2022-04-12T08:04:38Z,42.805,6.029,13.2994,4.60032,2470.577,2022-4-12T10:06:16Z
2022-04-12T08:07:41Z,42.805,6.029,13.2994,4.60033,2470.553,2022-4-12T10:09:19Z
2022-04-12T08:10:44Z,42.805,6.029,13.2994,4.60033,2470.577,2022-4-12T10:12:22Z
2022-04-12T08:13:47Z,42.805,6.029,13.3000,4.60034,2470.567,2022-4-12T10:15:25Z
2022-04-12T08:16:50Z,42.805,6.029,13.2997,4.60034,2470.553,2022-4-12T10:18:28Z
2022-04-12T08:19:53Z,42.805,6.029,13.2999,4.60033,2470.577,2022-4-12T10:21:31Z
2022-04-12T08:22:56Z,42.805,6.029,13.2998,4.60034,2470.567,2022-4-12T10:24:34Z
2022-04-12T08:25:59Z,42.805,6.029,13.2994,4.60033,2470.553,2022-4-12T10:27:38Z
2022-04-12T08:29:03Z,42.805,6.029,13.2998,4.60032,2470.567,2022-4-12T10:30:41Z
2022-04-12T08:32:06Z,42.805,6.029,13.2999,4.60033,2470.553,2022-4-12T10:33:44Z
2022-04-12T08:35:09Z,42.805,6.029,13.2998,4.60033,2470.553,2022-4-12T10:36:47Z
2022-04-12T08:38:12Z,42.805,6.029,13.2993,4.60033,2470.553,2022-4-12T10:39:50Z
2022-04-12T08:41:15Z,42.805,6.029,13.2996,4.60033,2470.53,2022-4-12T10:42:53Z
2022-04-12T08:44:18Z,42.805,6.029,13.2997,4.60034,2470.553,2022-4-12T10:45:56Z
2022-04-12T08:47:21Z,42.805,6.029,13.2996,4.60033,2470.567,2022-4-12T10:48:59Z
2022-04-12T08:50:24Z,42.805,6.029,13.2998,4.60032,2470.544,2022-4-12T10:52:03Z
2022-04-12T08:53:28Z,42.805,6.029,13.2998,4.60032,2470.591,2022-4-12T10:55:06Z
2022-04-12T08:56:31Z,42.805,6.029,13.2998,4.60033,2470.53,2022-4-12T10:58:09Z
2022-04-12T08:59:34Z,42.805,6.029,13.2998,4.60034,2470.553,2022-4-12T11:01:12Z
2022-04-12T09:02:37Z,42.805,6.029,13.2998,4.60033,2470.544,2022-4-12T11:04:15Z
2022-04-12T09:05:40Z,42.805,6.029,13.3000,4.60033,2470.52,2022-4-12T11:07:18Z
2022-04-12T09:08:43Z,42.805,6.029,13.2997,4.60033,2470.544,2022-4-12T11:10:21Z
2022-04-12T09:11:46Z,42.805,6.029,13.2998,4.60033,2470.507,2022-4-12T11:13:24Z
2022-04-12T09:14:49Z,42.805,6.029,13.2998,4.60033,2470.53,2022-4-12T11:16:28Z
2022-04-12T09:17:53Z,42.805,6.029,13.3000,4.60032,2470.46,2022-4-12T11:19:31Z
2022-04-12T09:20:56Z,42.805,6.029,13.3000,4.60032,2470.52,2022-4-12T11:22:34Z
2022-04-12T09:23:59Z,42.805,6.029,13.2997,4.60033,2470.53,2022-4-12T11:25:37Z
2022-04-12T09:27:02Z,42.805,6.029,13.2998,4.60033,2470.507,2022-4-12T11:28:40Z
2022-04-12T09:30:05Z,42.805,6.029,13.2994,4.60032,2470.544,2022-4-12T11:31:43Z
2022-04-12T09:33:08Z,42.805,6.029,13.3000,4.60033,2470.53,2022-4-12T11:34:46Z
2022-04-12T09:36:11Z,42.805,6.029,13.2999,4.60033,2470.507,2022-4-12T11:37:49Z
2022-04-12T09:39:14Z,42.805,6.029,13.2998,4.60033,2470.483,2022-4-12T11:40:53Z
2022-04-12T09:42:18Z,42.805,6.029,13.2996,4.60033,2470.507,2022-4-12T11:43:56Z
2022-04-12T09:45:21Z,42.805,6.029,13.2998,4.60032,2470.46,2022-4-12T11:46:59Z
2022-04-12T09:48:24Z,42.805,6.029,13.2997,4.60032,2470.497,2022-4-12T11:50:02Z
2022-04-12T09:51:27Z,42.805,6.029,13.2998,4.60032,2470.52,2022-4-12T11:53:05Z
2022-04-12T09:54:30Z,42.805,6.029,13.2996,4.60031,2470.544,2022-4-12T11:56:08Z
2022-04-12T09:57:33Z,42.805,6.029,13.2996,4.60034,2470.483,2022-4-12T11:59:11Z
2022-04-12T10:00:36Z,42.805,6.029,13.2996,4.60031,2470.497,2022-4-12T12:02:14Z
2022-04-12T10:03:39Z,42.805,6.029,13.2998,4.60033,2470.497,2022-4-12T12:05:18Z
2022-04-12T10:06:43Z,42.805,6.029,13.2999,4.60031,2470.483,2022-4-12T12:08:21Z
2022-04-12T10:09:46Z,42.805,6.029,13.2997,4.60033,2470.52,2022-4-12T12:11:24Z
2022-04-12T10:12:49Z,42.805,6.029,13.2997,4.60033,2470.497,2022-4-12T12:14:27Z
2022-04-12T10:15:52Z,42.805,6.029,13.3001,4.60032,2470.474,2022-4-12T12:17:30Z
2022-04-12T10:18:55Z,42.805,6.029,13.2995,4.60033,2470.483,2022-4-12T12:20:33Z
2022-04-12T10:21:58Z,42.805,6.029,13.2998,4.60032,2470.483,2022-4-12T12:23:36Z
2022-04-12T10:25:01Z,42.805,6.029,13.2998,4.60033,2470.507,2022-4-12T12:26:39Z
2022-04-12T10:28:04Z,42.805,6.029,13.2998,4.60033,2470.483,2022-4-12T12:29:43Z
2022-04-12T10:31:08Z,42.805,6.029,13.2998,4.60032,2470.46,2022-4-12T12:32:46Z
2022-04-12T10:34:11Z,42.805,6.029,13.2997,4.60032,2470.46,2022-4-12T12:35:49Z
2022-04-12T10:37:14Z,42.805,6.029,13.3000,4.60033,2470.46,2022-4-12T12:38:52Z
2022-04-12T10:40:17Z,42.805,6.029,13.2994,4.60032,2470.483,2022-4-12T12:41:55Z
2022-04-12T10:43:20Z,42.805,6.029,13.2998,4.60031,2470.437,2022-4-12T12:44:58Z
2022-04-12T10:46:23Z,42.805,6.029,13.2998,4.60033,2470.45,2022-4-12T12:48:01Z
2022-04-12T10:49:26Z,42.805,6.029,13.2996,4.60033,2470.437,2022-4-12T12:51:04Z
2022-04-12T10:52:29Z,42.805,6.029,13.2998,4.60031,2470.483,2022-4-12T12:54:08Z
2022-04-12T10:55:33Z,42.805,6.029,13.2999,4.60033,2470.437,2022-4-12T12:57:11Z
2022-04-12T10:58:36Z,42.805,6.029,13.2996,4.60031,2470.474,2022-4-12T13:00:14Z
2022-04-12T11:01:39Z,42.805,6.029,13.2998,4.60032,2470.46,2022-4-12T13:03:17Z
2022-04-12T11:04:42Z,42.805,6.029,13.2998,4.60034,2470.413,2022-4-12T13:06:20Z
2022-04-12T11:07:45Z,42.805,6.029,13.2999,4.60031,2470.437,2022-4-12T13:09:23Z
2022-04-12T11:10:48Z,42.805,6.029,13.2996,4.60032,2470.45,2022-4-12T13:12:26Z
2022-04-12T11:13:51Z,42.805,6.029,13.2996,4.60032,2470.437,2022-4-12T13:15:29Z
2022-04-12T11:16:54Z,42.805,6.029,13.2995,4.60033,2470.45,2022-4-12T13:18:33Z
2022-04-12T11:19:58Z,42.805,6.029,13.2996,4.60033,2470.46,2022-4-12T13:21:36Z
2022-04-12T11:23:01Z,42.805,6.029,13.2996,4.60032,2470.437,2022-4-12T13:24:39Z
2022-04-12T11:26:04Z,42.805,6.029,13.2999,4.60033,2470.437,2022-4-12T13:27:42Z
2022-04-12T11:29:07Z,42.805,6.029,13.2998,4.60031,2470.399,2022-4-12T13:30:45Z
2022-04-12T11:32:10Z,42.805,6.029,13.2999,4.60031,2470.437,2022-4-12T13:33:48Z
2022-04-12T11:35:13Z,42.805,6.029,13.2994,4.60031,2470.45,2022-4-12T13:36:51Z
2022-04-12T11:38:16Z,42.805,6.029,13.2996,4.60033,2470.474,2022-4-12T13:39:54Z
2022-04-12T11:41:19Z,42.805,6.029,13.2998,4.60033,2470.413,2022-4-12T13:42:58Z
2022-04-12T11:44:23Z,42.805,6.029,13.2999,4.60033,2470.45,2022-4-12T13:46:01Z
2022-04-12T11:47:26Z,42.805,6.029,13.2999,4.60031,2470.404,2022-4-12T13:49:04Z
2022-04-12T11:50:29Z,42.805,6.029,13.2996,4.60032,2470.427,2022-4-12T13:52:07Z
2022-04-12T11:53:32Z,42.805,6.029,13.2996,4.60032,2470.437,2022-4-12T13:55:10Z
2022-04-12T11:56:35Z,42.805,6.029,13.2998,4.60032,2470.45,2022-4-12T13:58:13Z
2022-04-12T11:59:38Z,42.805,6.029,13.2998,4.60033,2470.437,2022-4-12T14:01:16Z
2022-04-12T12:02:41Z,42.805,6.029,13.2996,4.60031,2470.413,2022-4-12T14:04:19Z
2022-04-12T12:05:44Z,42.805,6.029,13.2998,4.60031,2470.437,2022-4-12T14:07:23Z
2022-04-12T12:08:48Z,42.805,6.029,13.2996,4.60031,2470.46,2022-4-12T14:10:26Z
2022-04-12T12:11:51Z,42.805,6.029,13.2997,4.60031,2470.427,2022-4-12T14:13:29Z
2022-04-12T12:14:54Z,42.805,6.029,13.2995,4.60031,2470.474,2022-4-12T14:16:32Z
2022-04-12T12:17:57Z,42.805,6.029,13.2998,4.60032,2470.427,2022-4-12T14:19:35Z
2022-04-12T12:21:00Z,42.805,6.029,13.3000,4.60032,2470.437,2022-4-12T14:22:38Z
2022-04-12T12:24:03Z,42.805,6.029,13.2997,4.60033,2470.46,2022-4-12T14:25:41Z
2022-04-12T12:27:06Z,42.805,6.029,13.2994,4.60031,2470.446,2022-4-12T14:28:44Z
2022-04-12T12:30:09Z,42.805,6.029,13.2998,4.60032,2470.483,2022-4-12T14:31:48Z
2022-04-12T12:33:13Z,42.805,6.029,13.3000,4.60032,2470.474,2022-4-12T14:34:51Z
2022-04-12T12:36:16Z,42.805,6.029,13.2996,4.60032,2470.437,2022-4-12T14:37:54Z
2022-04-12T12:39:19Z,42.805,6.029,13.2998,4.60031,2470.46,2022-4-12T14:40:57Z
2022-04-12T12:42:22Z,42.805,6.029,13.2996,4.60031,2470.413,2022-4-12T14:44:00Z
2022-04-12T12:45:25Z,42.805,6.029,13.2995,4.60031,2470.437,2022-4-12T14:47:03Z
2022-04-12T12:48:28Z,42.805,6.029,13.3000,4.60031,2470.483,2022-4-12T14:50:06Z
2022-04-12T12:51:31Z,42.805,6.029,13.2996,4.60031,2470.474,2022-4-12T14:53:09Z
2022-04-12T12:54:34Z,42.805,6.029,13.2996,4.60031,2470.46,2022-4-12T14:56:13Z
2022-04-12T12:57:38Z,42.805,6.029,13.2996,4.60032,2470.483,2022-4-12T14:59:16Z
2022-04-12T13:00:41Z,42.805,6.029,13.3001,4.60033,2470.437,2022-4-12T15:02:19Z
2022-04-12T13:03:44Z,42.805,6.029,13.2995,4.60032,2470.46,2022-4-12T15:05:22Z
2022-04-12T13:06:47Z,42.805,6.029,13.2998,4.60031,2470.437,2022-4-12T15:08:25Z
2022-04-12T13:09:50Z,42.805,6.029,13.2998,4.60032,2470.437,2022-4-12T15:11:28Z
2022-04-12T13:12:53Z,42.805,6.029,13.2994,4.60031,2470.46,2022-4-12T15:14:31Z
2022-04-12T13:15:56Z,42.805,6.029,13.2997,4.60031,2470.46,2022-4-12T15:17:34Z
2022-04-12T13:18:59Z,42.805,6.029,13.2996,4.60032,2470.497,2022-4-12T15:20:38Z
2022-04-12T13:22:03Z,42.805,6.029,13.2996,4.60031,2470.474,2022-4-12T15:23:41Z
2022-04-12T13:25:06Z,42.805,6.029,13.2997,4.60031,2470.46,2022-4-12T15:26:44Z
2022-04-12T13:28:09Z,42.805,6.029,13.2994,4.60033,2470.483,2022-4-12T15:29:47Z
2022-04-12T13:31:12Z,42.805,6.029,13.2998,4.60032,2470.474,2022-4-12T15:32:50Z
2022-04-12T13:34:15Z,42.805,6.029,13.2997,4.60031,2470.46,2022-4-12T15:35:53Z
2022-04-12T13:37:18Z,42.805,6.029,13.2998,4.60031,2470.46,2022-4-12T15:38:56Z
2022-04-12T13:40:21Z,42.805,6.029,13.2998,4.60031,2470.497,2022-4-12T15:42:00Z
2022-04-12T13:43:24Z,42.805,6.029,13.2998,4.60031,2470.52,2022-4-12T15:45:03Z
2022-04-12T13:46:28Z,42.805,6.029,13.2998,4.60031,2470.474,2022-4-12T15:48:06Z
2022-04-12T13:49:31Z,42.805,6.029,13.2997,4.60032,2470.474,2022-4-12T15:51:09Z
2022-04-12T13:52:34Z,42.805,6.029,13.2995,4.60031,2470.446,2022-4-12T15:54:12Z
2022-04-12T13:55:37Z,42.805,6.029,13.2996,4.60031,2470.474,2022-4-12T15:57:15Z
2022-04-12T13:58:40Z,42.805,6.029,13.2998,4.60031,2470.483,2022-4-12T16:00:18Z
2022-04-12T14:01:43Z,42.805,6.029,13.3000,4.60031,2470.497,2022-4-12T16:03:21Z
2022-04-12T14:04:46Z,42.805,6.029,13.2999,4.60032,2470.52,2022-4-12T16:06:24Z
2022-04-12T14:07:49Z,42.805,6.029,13.2998,4.60031,2470.483,2022-4-12T16:09:28Z
2022-04-12T14:10:53Z,42.805,6.029,13.2996,4.60033,2470.483,2022-4-12T16:12:31Z
2022-04-12T14:13:56Z,42.805,6.029,13.2996,4.60031,2470.483,2022-4-12T16:15:34Z
2022-04-12T14:16:59Z,42.805,6.029,13.2995,4.60031,2470.446,2022-4-12T16:18:37Z
2022-04-12T14:20:02Z,42.805,6.029,13.2998,4.60031,2470.483,2022-4-12T16:21:40Z
2022-04-12T14:23:05Z,42.805,6.029,13.2999,4.60031,2470.483,2022-4-12T16:24:43Z
2022-04-12T14:26:08Z,42.805,6.029,13.2998,4.60032,2470.483,2022-4-12T16:27:46Z
2022-04-12T14:29:11Z,42.805,6.029,13.2999,4.60031,2470.483,2022-4-12T16:30:49Z
2022-04-12T14:32:14Z,42.805,6.029,13.2997,4.60032,2470.53,2022-4-12T16:33:53Z
2022-04-12T14:35:18Z,42.805,6.029,13.2996,4.60032,2470.507,2022-4-12T16:36:56Z
2022-04-12T14:38:21Z,42.805,6.029,13.2993,4.60031,2470.52,2022-4-12T16:39:59Z
2022-04-12T14:41:24Z,42.805,6.029,13.2999,4.60031,2470.507,2022-4-12T16:43:02Z
2022-04-12T14:44:27Z,42.805,6.029,13.3000,4.60031,2470.507,2022-4-12T16:46:05Z
2022-04-12T14:47:30Z,42.805,6.029,13.2998,4.60031,2470.544,2022-4-12T16:49:08Z
2022-04-12T14:50:33Z,42.805,6.029,13.2995,4.60032,2470.53,2022-4-12T16:52:11Z
2022-04-12T14:53:36Z,42.805,6.029,13.2998,4.60034,2470.53,2022-4-12T16:55:14Z
2022-04-12T14:56:39Z,42.805,6.029,13.2996,4.60033,2470.544,2022-4-12T16:58:18Z
2022-04-12T14:59:43Z,42.805,6.029,13.2998,4.60033,2470.53,2022-4-12T17:01:21Z
2022-04-12T15:02:46Z,42.805,6.029,13.2998,4.60032,2470.544,2022-4-12T17:04:24Z
2022-04-12T15:05:49Z,42.805,6.029,13.2998,4.60031,2470.53,2022-4-12T17:07:27Z
2022-04-12T15:08:52Z,42.805,6.029,13.2999,4.60033,2470.53,2022-4-12T17:10:30Z
2022-04-12T15:11:55Z,42.805,6.029,13.2996,4.60034,2470.507,2022-4-12T17:13:33Z
2022-04-12T15:14:58Z,42.805,6.029,13.2999,4.60031,2470.507,2022-4-12T17:16:36Z